GEFSGL_con_prob3kmehi_192.txt.gz
EHI
74 73 70 67 64 62 59 55 50 46 43 39 35 31 28 25 24 24 22 20 18 16 11 8 8 7 6 6 6 5 3 1 0 1 2 5 7 7 5 5 6 5 3
71 68 66 63 61 58 56 53 49 44 40 34 30 27 25 23 22 22 20 16 14 13 10 8 8 8 8 8 7 5 3 1 1 1 2 3 5 6 5 4 4 3 2
64 62 60 58 56 52 50 49 46 42 37 31 26 23 22 20 20 20 18 14 12 12 11 9 9 9 10 10 8 6 4 2 2 3 3 3 3 3 2 2 1 1 0
60 59 57 54 49 45 44 44 43 39 34 29 25 22 19 17 17 18 17 15 15 14 13 11 9 8 9 8 7 6 5 4 4 4 4 3 2 1 0 0 0 0 0
57 57 54 47 41 39 40 40 37 31 26 24 22 19 16 13 12 14 16 17 18 16 13 9 6 4 4 4 4 4 4 4 4 4 3 3 2 1 0 0 0 0 0
53 52 47 41 37 37 38 37 31 24 20 18 18 16 13 9 7 8 11 15 18 16 11 6 3 1 1 1 1 1 1 2 2 3 4 3 2 0 0 0 0 0 0
47 43 40 38 37 37 37 33 27 23 20 18 17 15 11 6 3 3 5 12 15 12 8 4 2 1 1 1 0 0 0 0 1 2 3 3 2 1 0 0 0 0 0
38 34 32 33 34 34 33 28 25 24 22 19 17 14 10 5 2 0 3 8 10 8 4 3 1 1 1 1 0 0 0 0 0 1 1 1 1 1 0 0 0 0 0
31 29 27 28 29 29 27 24 22 21 20 18 17 14 10 6 2 1 4 7 7 4 2 1 1 0 1 1 0 0 0 0 0 0 0 0 0 0 0 0 0 0 0
27 26 24 24 25 25 24 20 18 18 18 17 16 14 11 7 3 1 3 6 5 3 3 2 1 0 0 0 0 0 0 0 0 0 0 0 0 0 0 0 0 0 0
23 23 23 22 22 22 21 18 16 16 15 14 13 11 9 6 3 1 2 3 3 3 3 3 2 1 0 0 0 0 0 0 0 0 0 0 0 0 0 0 0 0 0
21 22 22 22 20 18 17 16 15 13 12 11 9 7 5 4 3 2 1 1 1 2 2 2 2 1 0 0 0 0 0 0 0 0 0 0 0 0 0 0 0 0 0
20 20 19 18 17 15 14 13 12 11 10 9 7 4 3 2 2 1 0 0 0 1 1 1 1 0 0 0 0 0 0 0 0 0 0 0 0 0 0 0 0 0 0
15 14 13 13 13 12 11 9 8 8 8 6 4 2 1 1 1 0 0 0 0 0 0 0 0 0 0 0 0 0 0 0 0 0 0 0 0 0 0 0 0 0 0
10 9 8 9 10 9 7 5 5 5 5 3 2 1 0 0 0 0 0 0 0 0 0 0 0 0 0 0 0 0 0 0 0 0 0 0 0 0 0 0 0 0 0
7 7 7 7 8 6 4 3 3 2 1 1 1 0 0 0 0 0 0 0 0 0 0 0 0 0 0 0 0 0 0 0 0 0 0 0 0 0 0 0 0 0 0
6 6 6 7 7 5 4 3 1 1 0 0 0 0 0 0 0 0 0 0 0 0 0 0 0 0 0 0 0 0 0 0 0 0 0 0 0 0 0 0 0 0 0
4 5 6 7 7 6 4 2 1 0 0 0 0 0 0 0 0 0 0 0 0 0 0 0 0 0 0 0 0 0 0 0 0 0 0 0 0 0 0 0 0 0 0
3 4 6 8 8 6 3 1 0 0 0 0 0 0 0 0 0 0 0 0 0 0 0 0 0 0 0 0 0 0 0 0 0 0 0 0 0 0 0 0 0 0 0
2 3 5 6 6 5 2 0 0 0 0 0 0 0 0 0 0 0 0 0 0 0 0 0 0 0 0 0 0 0 0 0 0 0 0 0 0 0 0 0 0 0 0
1 1 2 3 3 2 1 0 0 0 0 0 0 0 0 0 0 0 0 0 0 0 0 0 0 0 0 0 0 0 0 0 0 0 0 0 0 0 0 0 0 0 0
0 0 0 1 1 1 0 0 0 0 0 0 0 0 0 0 0 0 0 0 0 0 0 0 0 0 0 0 0 0 0 0 0 0 0 0 0 0 0 0 0 0 0
0 0 0 0 0 0 0 0 0 0 0 0 0 0 0 0 0 0 0 0 0 0 0 0 0 0 0 0 0 0 0 0 0 0 0 0 0 0 0 0 0 0 0
0 0 0 0 0 0 0 0 0 0 0 0 0 0 0 0 0 0 0 0 0 0 0 0 0 0 0 0 0 0 0 0 0 0 0 0 0 0 0 0 0 0 0
0 0 0 0 0 0 0 0 0 0 0 0 0 0 0 0 0 0 0 0 0 0 0 0 0 0 0 0 0 0 0 0 0 0 0 0 0 0 0 0 0 0 0
0 0 0 0 0 0 0 0 0 0 0 0 0 0 0 0 0 0 0 0 0 0 0 0 0 0 0 0 0 0 0 0 0 0 0 0 0 0 0 0 0 0 0

GEFSGL_con_prob3kmehi_198.txt.gz
EHI
59 52 40 33 31 28 21 16 12 7 5 4 2 2 3 4 4 4 5 5 4 3 3 3 3 1 0 0 0 0 0 0 0 0 0 0 0 0 0 0 0 0 0
57 52 44 36 31 26 19 15 12 9 6 4 3 3 4 4 5 4 4 4 3 3 3 3 3 2 1 0 0 0 0 0 0 0 0 0 0 0 0 0 0 0 0
54 51 44 36 30 24 18 13 12 10 7 4 4 5 5 5 5 4 3 3 3 3 3 3 3 3 1 1 0 0 0 0 0 0 0 0 0 0 0 0 0 0 0
51 47 40 34 30 25 18 13 12 10 7 4 3 4 5 5 4 3 3 3 3 3 3 3 3 3 3 2 1 0 0 0 0 0 0 0 0 0 0 0 0 0 0
46 42 37 33 31 26 18 13 12 9 6 4 3 3 4 4 4 3 3 3 3 3 3 3 3 3 3 2 1 0 0 0 0 0 0 0 0 0 0 0 0 0 0
41 38 33 30 28 24 18 13 11 8 5 4 5 5 5 5 4 3 2 2 2 2 3 3 3 2 2 1 0 0 0 0 0 0 0 0 0 0 0 0 0 0 0
35 31 27 25 23 19 15 13 11 8 6 6 6 6 6 6 4 2 1 1 1 1 1 2 2 1 1 0 0 0 0 0 0 0 0 0 0 0 0 0 0 0 0
29 25 21 20 18 15 13 12 11 9 7 7 6 6 6 6 4 1 0 0 0 0 1 2 2 1 1 0 0 0 0 0 0 0 0 0 0 0 0 0 0 0 0
22 19 17 17 16 14 12 11 10 9 8 7 6 6 6 5 3 1 0 1 1 1 1 2 2 2 1 0 0 0 0 0 0 0 0 0 0 0 0 0 0 0 0
17 15 15 16 15 14 12 10 9 8 8 7 6 5 5 4 2 0 1 2 2 2 3 3 2 1 1 0 0 0 0 0 0 0 0 0 0 0 0 0 0 0 0
15 15 15 15 14 13 12 11 9 7 7 7 6 6 5 3 2 1 1 2 2 2 2 2 1 0 0 0 0 0 0 0 0 0 0 0 0 0 0 0 0 0 0
13 13 13 12 12 12 12 10 8 6 6 6 6 5 4 3 2 1 1 1 1 1 1 1 1 0 0 0 0 0 0 0 0 0 0 0 0 0 0 0 0 0 0
10 10 9 9 9 10 9 8 6 4 4 4 5 4 2 1 1 1 0 0 0 0 0 0 0 0 0 0 0 0 0 0 0 0 0 0 0 0 0 0 0 0 0
7 7 7 7 7 7 6 5 4 3 3 3 4 3 1 0 0 0 0 0 0 0 0 0 0 0 0 0 0 0 0 0 0 0 0 0 0 0 0 0 0 0 0
6 6 6 6 5 4 4 4 3 3 3 3 3 2 1 0 0 0 0 0 0 0 0 0 0 0 0 0 0 0 0 0 0 0 0 0 0 0 0 0 0 0 0
4 4 5 5 4 3 3 3 3 3 2 2 2 1 0 0 0 0 0 0 0 0 0 0 0 0 0 0 0 0 0 0 0 0 0 0 0 0 0 0 0 0 0
3 3 3 2 2 3 3 3 3 2 1 1 1 0 0 0 0 0 0 0 0 0 0 0 0 0 0 0 0 0 0 0 0 0 0 0 0 0 0 0 0 0 0
3 3 2 1 1 2 3 3 3 2 0 0 0 0 0 0 0 0 0 0 0 0 0 0 0 0 0 0 0 0 0 0 0 0 0 0 0 0 0 0 0 0 0
3 3 2 0 0 1 2 3 3 1 0 0 0 0 0 0 0 0 0 0 0 0 0 0 0 0 0 0 0 0 0 0 0 0 0 0 0 0 0 0 0 0 0
3 3 2 0 0 0 1 2 2 1 0 0 0 0 0 0 0 0 0 0 0 0 0 0 0 0 0 0 0 0 0 0 0 0 0 0 0 0 0 0 0 0 0
3 3 1 0 0 0 0 1 1 0 0 0 0 0 0 0 0 0 0 0 0 0 0 0 0 0 0 0 0 0 0 0 0 0 0 0 0 0 0 0 0 0 0
3 2 1 0 0 0 0 0 0 0 0 0 0 0 0 0 0 0 0 0 0 0 0 0 0 0 0 0 0 0 0 0 0 0 0 0 0 0 0 0 0 0 0
2 1 0 0 0 0 0 0 0 0 0 0 0 0 0 0 0 0 0 0 0 0 0 0 0 0 0 0 0 0 0 0 0 0 0 0 0 0 0 0 0 0 0
1 1 0 0 0 0 0 0 0 0 0 0 0 0 0 0 0 0 0 0 0 0 0 0 0 0 0 0 0 0 0 0 0 0 0 0 0 0 0 0 0 0 0
0 0 0 0 0 0 0 0 0 0 0 0 0 0 0 0 0 0 0 0 0 0 0 0 0 0 0 0 0 0 0 0 0 0 0 0 0 0 0 0 0 0 0
0 0 0 0 0 0 0 0 0 0 0 0 0 0 0 0 0 0 0 0 0 0 0 0 0 0 0 0 0 0 0 0 0 0 0 0 0 0 0 0 0 0 0

GEFSGL_con_prob3kmehi_204.txt.gz
EHI
30 30 30 28 24 20 15 10 6 4 4 4 1 0 1 2 3 2 1 1 1 1 0 1 1 1 0 0 0 0 0 0 0 0 0 0 0 0 0 0 0 0 0
28 28 26 23 19 15 12 8 6 5 5 5 2 1 1 2 3 2 1 0 0 0 1 2 2 2 1 1 0 0 0 0 0 0 0 0 0 0 0 0 0 0 0
27 26 23 20 17 13 10 9 7 6 5 4 3 2 2 2 2 1 0 0 0 0 1 2 3 3 3 2 1 0 0 0 0 0 0 0 0 0 0 0 0 0 0
27 26 23 20 18 15 12 11 9 7 7 5 4 3 2 1 1 0 0 0 1 1 1 3 3 3 3 3 1 1 1 0 0 0 0 0 0 0 0 0 0 0 0
26 25 23 20 18 16 14 12 10 9 9 7 5 3 2 1 1 0 0 1 2 2 3 3 3 3 3 2 2 2 2 1 0 0 0 0 0 0 0 0 0 0 0
26 24 21 18 17 15 14 13 11 9 8 7 5 3 2 2 1 0 0 2 3 3 3 3 3 3 2 1 1 1 2 1 1 0 0 0 0 0 0 0 0 0 0
23 21 19 17 16 16 14 13 11 9 7 6 4 3 3 3 2 0 0 1 2 2 2 2 2 1 1 0 0 0 1 1 1 1 0 0 0 0 0 0 0 0 0
19 18 16 16 16 16 14 12 11 9 7 5 4 3 3 2 1 0 0 0 1 1 1 1 1 0 0 0 1 0 0 0 0 0 0 0 0 0 0 0 0 0 0
17 16 14 15 16 15 13 11 10 9 6 4 3 2 2 1 1 0 0 0 0 0 0 0 0 0 0 0 0 0 0 0 0 0 0 0 0 0 0 0 0 0 0
15 14 14 15 15 14 11 10 9 8 5 2 1 1 1 0 0 0 0 0 0 1 1 1 0 0 0 0 0 0 0 1 0 0 0 0 0 0 0 0 0 0 0
12 12 13 14 13 11 10 10 9 7 4 1 0 0 0 1 1 0 0 1 1 2 2 1 0 0 0 0 0 0 0 0 0 0 0 0 0 0 0 0 0 0 0
9 10 10 10 10 9 9 8 7 5 3 1 0 0 1 1 1 0 0 1 2 2 2 1 0 0 0 0 0 0 0 0 0 0 0 0 0 0 0 0 0 0 0
9 9 8 8 8 7 7 6 5 4 2 1 1 1 2 2 1 0 0 0 1 1 1 0 0 0 0 0 0 0 0 0 0 0 0 0 0 0 0 0 0 0 0
9 8 8 8 8 6 5 4 4 3 3 3 2 2 2 2 1 0 0 0 0 0 0 0 0 0 0 0 0 0 0 0 0 0 0 0 0 0 0 0 0 0 0
6 6 6 7 7 6 5 4 3 3 3 3 3 3 3 2 1 0 0 0 0 0 0 0 0 0 0 0 0 0 0 0 0 0 0 0 0 0 0 0 0 0 0
4 4 4 4 5 5 4 3 3 3 2 2 2 2 2 2 1 0 0 0 0 0 0 0 0 0 0 0 0 0 0 0 0 0 0 0 0 0 0 0 0 0 0
3 3 3 3 4 3 3 3 3 3 2 1 1 1 1 1 0 0 0 0 0 0 0 0 0 0 0 0 0 0 0 0 0 0 0 0 0 0 0 0 0 0 0
3 3 3 3 2 1 1 1 2 2 2 1 0 0 0 0 0 0 0 0 0 0 0 0 0 0 0 0 0 0 0 0 0 0 0 0 0 0 0 0 0 0 0
3 3 3 2 1 0 0 0 1 1 1 1 0 0 0 0 0 0 0 0 0 0 0 0 0 0 0 0 0 0 0 0 0 0 0 0 0 0 0 0 0 0 0
3 3 2 1 0 0 0 0 0 0 0 0 0 0 0 0 0 0 0 0 0 0 0 0 0 0 0 0 0 0 0 0 0 0 0 0 0 0 0 0 0 0 0
3 2 1 0 0 0 0 0 0 0 0 0 0 0 0 0 0 0 0 0 0 0 0 0 0 0 0 0 0 0 0 0 0 0 0 0 0 0 0 0 0 0 0
2 1 0 0 0 0 0 0 0 0 0 0 0 0 0 0 0 0 0 0 0 0 0 0 0 0 0 0 0 0 0 0 0 0 0 0 0 0 0 0 0 0 0
2 1 0 0 0 0 0 0 0 0 0 0 0 0 0 0 0 0 0 0 0 0 0 0 0 0 0 0 0 0 0 0 0 0 0 0 0 0 0 0 0 0 0
1 0 0 0 0 0 0 0 0 0 0 0 0 0 0 0 0 0 0 0 0 0 0 0 0 0 0 0 0 0 0 0 0 0 0 0 0 0 0 0 0 0 0
0 0 0 0 0 0 0 0 0 0 0 0 0 0 0 0 0 0 0 0 0 0 0 0 0 0 0 0 0 0 0 0 0 0 0 0 0 0 0 0 0 0 0
0 0 0 0 0 0 0 0 0 0 0 0 0 0 0 0 0 0 0 0 0 0 0 0 0 0 0 0 0 0 0 0 0 0 0 0 0 0 0 0 0 0 0

GEFSGL_con_prob3kmehi_210.txt.gz
EHI
39 39 33 28 27 28 28 27 24 21 20 20 19 19 16 11 9 8 6 6 9 9 6 4 4 4 7 10 10 8 9 8 5 2 0 1 1 1 1 1 1 0 0
41 39 36 32 31 31 29 26 25 23 22 20 19 20 17 12 9 8 6 6 7 7 6 5 4 5 8 11 10 8 7 6 5 3 1 0 0 0 0 0 0 0 0
40 39 37 36 34 30 26 25 24 25 23 20 19 19 16 11 8 8 8 7 7 6 6 6 5 6 9 10 10 9 7 6 5 3 1 0 0 0 0 0 0 0 0
38 37 36 35 31 27 25 24 24 24 24 22 19 17 14 11 9 10 10 10 8 8 9 9 7 6 7 9 9 9 8 6 5 3 1 0 0 0 0 0 0 0 0
35 34 33 32 29 27 26 25 24 23 23 22 20 18 14 12 10 10 10 9 9 9 11 11 9 6 5 7 7 7 6 4 3 3 2 0 0 0 0 0 0 0 0
32 31 30 30 29 28 28 26 24 22 21 20 19 19 16 12 8 7 7 7 8 9 11 11 8 5 4 4 4 4 3 2 2 2 1 0 0 0 0 0 0 0 0
31 29 28 28 28 28 27 25 23 21 20 18 18 18 15 10 6 3 3 5 7 8 7 7 6 3 2 2 1 1 1 1 0 0 0 0 0 0 0 0 0 0 0
30 28 27 27 26 25 24 22 21 20 19 17 17 16 13 8 4 1 2 4 6 5 4 4 4 3 1 0 0 0 0 0 0 0 0 0 0 0 0 1 1 1 1
29 27 26 25 24 22 21 20 18 18 17 16 15 14 12 8 3 1 2 5 5 4 3 3 3 2 1 0 0 0 0 0 0 0 0 0 0 0 0 1 2 1 2
27 25 23 23 22 20 19 18 16 15 15 15 14 13 11 7 4 2 2 4 5 4 3 3 2 1 0 0 0 0 0 0 0 0 0 0 0 0 0 1 2 2 2
23 23 21 20 19 18 17 17 16 15 14 14 13 12 9 7 5 3 1 2 4 4 4 4 3 1 0 0 0 1 0 0 0 0 1 0 0 0 0 2 3 3 3
20 20 18 16 16 16 16 16 15 14 13 13 12 10 8 6 5 3 1 1 3 5 6 5 3 1 0 0 0 0 0 0 0 0 0 0 0 0 0 1 2 3 3
17 16 15 13 13 14 15 15 13 12 12 12 11 9 7 5 4 3 1 0 2 4 4 3 1 0 0 0 0 0 0 0 0 0 0 0 0 0 0 0 1 1 2
12 12 11 10 10 11 12 11 11 10 10 10 9 8 6 4 3 3 2 1 1 2 2 1 0 0 0 0 0 0 0 0 0 0 0 0 0 0 0 0 0 0 1
9 8 8 7 8 8 8 8 8 8 7 7 6 6 5 4 3 3 2 2 2 1 0 0 0 0 0 0 0 0 0 0 0 0 0 0 0 0 0 0 0 0 0
8 7 7 6 5 5 5 5 5 5 4 2 2 3 3 3 2 1 1 1 1 1 0 0 0 0 0 0 0 0 0 0 0 0 0 0 0 0 0 0 0 0 0
8 7 6 5 4 4 4 4 4 4 2 1 0 1 1 1 1 0 0 0 0 0 0 0 0 0 0 0 0 0 0 0 0 0 0 0 0 0 0 0 0 0 0
6 5 4 4 3 4 4 4 4 3 3 2 1 1 0 0 0 0 0 1 1 0 0 0 0 0 0 0 0 0 0 0 0 0 0 0 0 0 0 0 0 0 0
5 4 3 3 3 3 4 3 3 3 3 3 3 2 1 0 0 0 0 1 2 1 0 0 0 0 0 0 0 0 0 0 0 0 0 0 0 0 0 0 0 0 0
5 4 3 3 3 3 3 3 3 2 2 2 3 3 2 1 1 0 0 1 2 2 1 1 0 0 0 0 0 0 0 0 0 0 0 0 0 0 0 0 0 0 0
6 4 3 3 3 3 3 3 3 1 0 1 1 2 1 2 2 1 1 1 2 3 3 2 1 0 0 0 0 0 0 0 0 0 0 0 0 0 0 0 0 0 0
6 5 4 3 3 2 2 3 2 1 0 0 0 0 0 1 2 2 2 2 3 3 3 3 2 1 0 0 0 0 0 0 0 0 0 0 0 0 0 0 0 0 0
5 4 3 2 1 1 1 1 2 1 0 0 0 0 0 0 1 1 2 3 3 3 3 2 2 1 0 0 0 0 0 0 0 0 0 0 0 0 0 0 0 0 0
4 3 3 1 0 0 0 0 1 1 0 0 0 0 0 0 0 0 1 2 2 2 1 1 1 0 0 0 0 0 0 0 0 0 0 0 0 0 0 0 0 0 0
3 3 2 1 0 0 0 0 0 0 0 0 0 0 0 0 0 0 0 1 1 1 0 0 0 0 0 0 0 0 0 0 0 0 0 0 0 0 0 0 0 0 0
3 3 2 1 0 0 0 0 0 0 0 0 0 0 0 0 0 0 0 0 0 0 0 0 0 0 0 0 0 0 0 0 0 0 0 0 0 0 0 0 0 0 0

GEFSGL_con_prob3kmehi_216.txt.gz
EHI
67 63 57 54 51 49 49 49 49 46 40 36 36 37 34 28 26 27 25 23 21 18 13 10 9 8 6 4 4 5 7 5 2 0 1 3 3 1 0 0 0 0 0
64 62 58 55 53 51 50 50 47 43 39 35 34 35 34 30 28 27 24 21 21 20 16 14 13 10 8 6 5 7 8 6 2 1 1 2 2 1 0 0 0 0 0
59 59 57 56 54 52 50 47 42 39 36 33 32 32 30 29 28 26 23 19 18 18 17 16 15 12 10 9 10 10 10 7 4 2 1 1 1 1 1 0 0 0 0
55 55 54 53 50 48 45 40 35 34 33 31 29 27 25 23 23 23 21 18 15 14 15 14 12 11 10 10 12 13 12 9 6 3 1 0 0 0 0 0 0 0 0
53 52 51 49 45 41 37 33 31 30 30 28 26 25 23 20 19 19 19 17 14 12 12 12 10 8 7 8 9 11 11 10 7 4 1 0 0 0 0 0 0 0 0
51 48 46 43 40 35 32 31 31 30 28 25 23 22 21 18 15 14 16 15 13 11 11 10 8 6 5 4 5 6 7 7 6 3 1 0 0 0 0 0 0 0 0
47 44 40 39 37 34 32 32 31 29 24 22 20 19 18 15 12 10 11 12 11 9 9 9 8 6 4 1 1 1 2 2 2 2 1 0 0 0 0 0 0 0 0
43 40 37 37 36 34 32 31 29 25 21 19 17 16 15 13 10 8 8 9 8 8 8 8 8 6 3 1 0 0 0 0 0 0 0 0 0 0 0 0 0 0 0
40 38 36 35 35 32 30 28 24 21 19 17 15 14 13 11 8 6 7 7 7 7 8 7 6 5 2 1 0 0 0 0 0 0 0 0 0 0 0 0 0 0 0
39 38 36 35 32 30 26 22 18 17 17 16 14 13 13 11 7 3 4 6 7 8 7 6 4 3 1 0 0 0 0 0 0 0 0 0 0 0 0 0 0 0 0
40 39 37 33 28 24 20 16 14 14 16 15 13 12 12 9 5 2 2 4 7 7 6 5 3 2 0 0 0 0 0 0 0 0 0 0 0 0 0 0 0 0 0
42 39 36 31 25 18 15 13 13 14 14 13 11 11 10 8 6 3 1 2 4 5 5 4 2 1 0 0 0 0 0 0 0 0 0 0 0 0 0 0 0 0 0
41 38 34 30 25 19 15 13 13 13 12 11 10 9 9 7 6 3 1 0 1 3 3 2 1 0 0 0 0 0 0 0 0 0 0 0 0 0 0 0 0 0 0
39 35 31 26 22 18 14 12 11 10 10 10 9 9 7 7 6 3 1 1 1 2 1 1 0 0 0 0 0 0 0 0 0 0 0 0 0 0 0 0 0 0 0
36 32 26 19 14 13 11 9 8 7 7 8 8 7 6 6 4 3 2 2 2 2 1 0 0 0 0 0 0 0 0 0 0 0 0 0 0 0 0 0 0 0 0
32 28 20 12 8 7 7 6 5 4 3 4 6 6 5 3 2 1 2 2 1 1 1 0 0 0 0 0 0 0 0 0 0 0 0 0 0 0 0 0 0 0 0
27 23 16 9 6 5 5 6 6 4 3 2 3 3 3 1 0 0 1 1 0 0 1 1 1 0 0 0 0 0 0 0 0 0 0 0 0 0 0 0 0 0 0
22 18 14 10 8 7 6 6 7 6 4 2 2 1 1 0 0 0 0 0 0 1 2 2 1 0 0 0 0 0 0 0 0 0 0 0 0 0 0 0 0 0 0
19 16 12 11 11 10 8 7 6 6 4 2 2 2 1 0 0 0 0 0 0 1 2 3 2 1 0 0 0 0 0 0 0 0 0 0 0 0 0 0 0 0 0
18 14 10 10 11 10 9 8 6 4 3 1 1 2 1 0 0 0 0 0 1 1 2 3 3 2 1 0 0 0 0 0 0 0 0 0 0 0 0 0 0 0 0
16 12 9 9 9 9 9 8 6 4 3 2 1 1 1 0 0 1 1 1 2 2 2 3 3 3 1 1 0 0 0 0 0 0 0 0 0 0 0 0 0 0 0
16 13 9 7 8 8 7 6 4 3 3 2 1 0 0 0 0 1 2 3 3 2 3 3 3 3 2 2 1 0 0 0 0 0 0 0 0 0 0 0 0 0 0
13 11 8 7 7 6 5 4 3 3 3 2 1 0 0 0 0 1 2 2 2 2 2 2 2 2 3 3 1 0 0 0 0 0 0 0 0 0 0 0 0 0 0
9 8 7 6 6 5 4 3 3 3 3 1 0 0 0 0 0 0 1 1 1 1 1 1 1 1 2 2 1 0 0 0 0 0 0 0 0 0 0 0 0 0 0
7 7 7 6 4 4 3 3 3 3 2 1 0 0 0 0 0 0 0 0 0 0 0 0 0 0 1 1 1 0 0 0 0 0 0 0 0 0 0 0 0 0 0
7 8 8 6 4 3 3 3 3 3 1 0 0 0 0 0 0 0 0 0 0 0 0 0 0 0 0 0 0 0 0 0 0 0 0 0 0 0 0 0 0 0 0

GEFSGL_con_prob3kmehi_222.txt.gz
EHI
41 41 39 35 31 27 20 14 12 10 9 9 11 11 11 12 12 12 10 7 3 1 0 0 0 0 0 0 0 0 0 1 2 1 0 0 0 0 0 0 0 0 0
39 40 38 36 33 28 21 15 13 10 8 9 11 11 11 13 14 14 11 8 5 2 0 0 0 0 0 0 0 0 0 1 2 2 1 0 0 0 0 0 0 0 0
37 38 37 36 34 28 22 17 13 11 9 10 11 12 12 13 14 15 14 10 6 2 0 0 0 0 0 0 0 1 1 2 3 3 2 1 0 0 0 0 0 0 0
35 36 35 33 31 27 23 18 15 13 11 10 11 12 12 12 13 16 15 11 7 3 1 1 1 1 1 1 1 2 3 3 3 3 3 2 1 0 0 0 0 0 0
34 34 32 28 26 25 23 20 18 15 12 9 10 12 12 12 12 14 14 11 7 4 3 2 2 3 3 2 2 3 3 3 3 3 3 2 1 0 0 0 0 0 0
33 32 28 25 23 23 23 21 19 16 12 10 10 12 13 12 12 12 11 10 8 6 4 3 3 3 3 3 3 3 3 3 3 2 2 1 0 0 0 0 0 0 0
31 30 27 25 24 23 23 21 19 16 13 12 12 13 13 12 11 9 9 8 8 7 5 4 3 2 2 3 3 3 2 2 1 1 1 0 0 0 0 0 0 0 0
29 29 27 26 24 23 22 20 18 16 14 13 13 13 13 11 9 8 7 7 7 7 6 5 5 3 3 2 2 1 1 1 0 0 0 0 0 0 0 0 0 0 0
27 27 26 25 23 22 19 17 15 13 12 12 12 12 11 10 8 6 5 6 7 6 5 5 6 5 3 1 1 0 0 0 0 0 0 0 0 0 0 0 0 1 1
26 26 25 24 22 19 16 12 10 10 10 11 10 9 9 9 8 5 4 6 6 5 4 4 4 4 2 0 0 0 0 0 0 0 0 0 0 0 0 0 0 0 0
25 25 24 21 19 15 11 8 7 7 9 9 9 8 7 9 8 5 3 5 6 5 4 3 2 1 0 0 0 0 0 0 0 0 0 0 0 0 0 0 0 0 0
24 23 21 18 15 11 8 6 6 6 7 8 8 7 6 7 6 3 1 2 4 5 5 3 1 0 0 0 0 0 0 0 0 0 0 0 0 0 0 0 0 0 0
22 21 18 15 11 7 5 5 5 6 6 6 7 7 5 5 4 2 1 1 2 3 3 2 1 0 0 0 0 0 0 0 0 0 0 0 0 0 0 0 0 0 0
21 18 15 11 7 4 4 4 4 5 6 7 7 7 5 4 3 3 2 1 0 1 1 1 0 0 0 0 0 0 0 0 0 0 0 0 0 0 0 0 0 0 0
21 16 12 8 5 3 3 3 3 4 6 7 6 6 5 4 3 3 2 1 0 0 0 0 0 0 0 0 0 0 0 0 0 0 0 0 0 0 0 0 0 0 0
19 14 10 7 4 3 3 2 2 3 4 4 3 3 4 4 2 1 1 1 0 0 0 0 0 0 0 0 0 0 0 0 0 0 0 0 0 0 0 0 0 0 0
16 12 8 6 4 3 3 3 3 3 2 1 1 1 2 2 1 0 0 0 0 0 0 0 0 0 0 0 0 0 0 0 0 0 0 0 0 0 0 0 0 0 0
12 9 6 4 3 3 3 3 3 3 2 1 0 0 0 0 0 0 0 0 0 0 0 0 0 0 0 0 0 0 0 0 0 0 0 0 0 0 0 0 0 0 0
7 6 4 3 3 3 3 3 3 3 3 2 1 0 0 0 0 0 0 0 0 0 0 0 0 0 0 0 0 0 0 0 0 0 0 0 0 0 0 0 0 0 0
5 4 4 3 3 3 3 3 3 3 3 3 1 0 0 0 0 0 0 0 0 0 0 0 0 0 0 0 0 0 0 0 0 0 0 0 0 0 0 0 0 0 0
4 4 3 3 3 3 3 3 3 3 3 3 2 0 0 0 0 0 0 0 0 0 0 0 0 0 0 0 0 0 0 0 0 0 0 0 0 0 0 0 0 0 0
3 3 3 3 3 3 3 3 3 3 3 3 1 0 0 0 0 0 0 0 0 0 0 0 0 0 0 0 0 0 0 0 0 0 0 0 0 0 0 0 0 0 0
3 3 3 3 3 3 3 3 3 3 3 2 1 0 0 0 0 0 0 0 0 0 0 0 0 0 0 0 0 0 0 0 0 0 0 0 0 0 0 0 0 0 0
4 4 3 3 3 3 3 3 3 3 3 2 1 0 0 0 0 0 0 0 0 0 0 0 0 0 0 0 0 0 0 0 0 0 0 0 0 0 0 0 0 0 0
6 5 4 4 3 3 3 3 3 3 3 1 0 0 0 0 0 0 0 0 0 0 0 0 0 0 0 0 0 0 0 0 0 0 0 0 0 0 0 0 0 0 0
6 6 6 5 4 3 3 3 3 3 2 1 0 0 0 0 0 0 0 0 0 0 0 0 0 0 0 0 0 0 0 0 0 0 0 0 0 0 0 0 0 0 0

GEFSGL_con_prob3kmehi_228.txt.gz
EHI
15 13 10 7 7 8 8 7 5 2 1 2 3 3 3 4 5 6 6 4 2 1 0 0 0 0 0 1 1 0 0 1 2 1 0 0 0 0 0 0 0 0 0
16 15 13 11 10 9 9 7 5 3 2 3 3 3 3 4 5 5 5 4 3 2 1 0 0 1 1 2 2 1 0 2 3 2 1 1 0 0 0 0 0 0 0
18 17 15 13 13 11 9 7 5 4 3 3 3 3 3 3 4 4 4 4 3 3 2 0 1 2 3 3 2 1 0 1 2 3 2 1 1 0 0 0 0 0 0
20 18 15 13 12 10 8 7 5 4 3 3 3 3 3 3 3 3 3 3 3 2 1 0 1 2 3 4 3 1 1 1 2 2 1 1 1 1 1 0 0 0 0
24 22 18 16 14 10 8 8 7 7 6 4 3 3 3 3 3 3 4 4 4 3 2 2 2 3 3 3 3 2 2 2 3 2 1 0 1 2 1 0 0 0 0
27 25 22 20 18 13 10 9 10 11 9 7 5 5 5 4 3 4 5 5 5 5 5 5 5 4 4 3 2 1 2 2 2 2 2 1 1 2 1 0 0 0 0
28 26 24 23 21 16 11 10 11 12 11 11 10 9 8 6 4 3 3 5 6 6 6 6 6 5 5 4 2 1 1 1 1 1 2 3 3 2 1 0 0 0 0
25 24 24 24 21 17 13 10 10 11 12 13 13 13 12 8 4 1 1 3 5 6 6 6 6 6 6 5 4 3 2 0 0 1 2 2 2 2 1 0 0 0 0
19 20 22 22 20 18 15 12 9 9 10 11 12 12 11 8 3 1 1 2 3 4 5 6 6 6 5 4 4 4 2 0 0 0 1 1 1 1 1 1 1 1 1
16 18 20 21 19 17 15 11 8 7 7 7 7 7 7 5 2 0 1 2 2 3 4 5 4 4 3 2 3 4 3 1 1 1 1 1 1 1 1 1 1 2 2
17 17 18 19 18 16 13 10 8 6 5 5 5 5 4 3 2 1 0 1 2 4 4 4 3 3 2 1 1 2 2 2 2 2 2 2 2 2 1 1 1 1 1
17 17 16 16 16 16 14 10 6 4 4 5 4 3 2 1 2 2 1 0 2 3 4 3 3 2 1 0 0 1 1 1 1 1 2 2 2 1 1 0 0 0 0
16 16 15 14 14 14 13 8 3 2 3 4 3 2 1 1 2 2 1 0 0 1 2 2 1 1 0 0 0 0 0 0 0 0 1 1 1 0 0 0 0 0 0
14 14 13 13 13 12 10 6 2 1 2 3 2 1 0 0 2 2 2 1 0 0 1 1 0 0 0 0 0 0 0 0 0 0 0 0 0 0 0 0 0 0 0
13 13 13 13 12 10 7 5 2 1 2 2 1 0 0 0 1 2 1 1 1 0 0 0 0 0 0 0 0 0 0 0 0 0 0 0 0 0 0 0 0 0 0
13 13 13 13 11 9 6 4 2 1 1 1 0 0 1 1 1 1 0 0 0 0 0 0 0 0 0 0 0 0 0 0 0 0 0 0 0 0 0 0 0 0 0
14 13 12 12 11 8 6 4 2 1 1 0 0 0 1 1 1 0 0 0 0 0 0 0 0 0 0 0 0 0 0 0 0 0 0 0 0 0 0 0 0 0 0
13 12 11 11 10 7 5 4 3 3 2 1 1 0 1 1 0 0 0 0 0 0 0 0 0 0 0 0 0 0 0 0 0 0 0 0 0 0 0 0 0 0 0
11 10 10 10 8 6 4 3 3 3 3 3 2 1 0 0 0 0 0 0 1 1 0 0 0 0 0 0 0 0 0 0 0 0 0 0 0 0 0 0 0 0 0
8 8 7 7 6 4 3 3 3 3 3 3 3 2 1 1 1 0 0 0 1 1 0 0 0 0 0 0 0 0 0 0 0 0 0 0 0 0 0 0 0 0 0
7 5 4 4 4 3 3 3 3 3 3 3 3 3 2 2 2 1 0 0 0 0 0 0 0 0 0 0 0 0 0 0 0 0 0 0 0 0 0 0 0 0 0
6 5 2 2 3 3 3 3 3 3 3 3 3 3 2 3 3 2 1 0 0 0 0 0 0 0 0 0 0 0 0 0 0 0 0 0 0 0 0 0 0 0 0
5 4 3 3 3 3 3 3 3 3 3 3 3 2 2 2 3 3 2 0 0 0 0 0 0 0 0 0 0 0 0 0 0 0 0 0 0 0 0 0 0 0 0
4 3 3 3 3 3 3 3 3 3 3 3 3 2 2 3 3 3 1 0 0 0 0 0 0 0 0 0 0 0 0 0 0 0 0 0 0 0 0 0 0 0 0
3 3 3 3 3 3 3 3 3 3 3 3 3 2 2 2 2 2 1 0 0 0 0 0 0 0 0 0 0 0 0 0 0 0 0 0 0 0 0 0 0 0 0
3 3 3 3 3 3 3 3 3 3 3 3 2 1 1 1 1 1 0 0 0 0 0 0 0 0 0 0 0 0 0 0 0 0 0 0 0 0 0 0 0 0 0

GEFSGL_con_prob3kmehi_234.txt.gz
EHI
35 33 29 28 28 27 23 17 15 14 14 14 14 14 14 11 10 8 5 2 2 3 3 3 4 6 10 10 6 4 3 3 4 4 3 2 3 4 4 4 4 3 2
37 35 31 28 27 24 21 17 15 14 13 13 13 14 13 11 10 9 5 3 3 4 4 4 5 7 9 9 6 4 4 4 4 4 4 3 3 4 4 4 3 3 3
39 37 33 28 25 22 20 17 15 14 13 13 13 13 12 10 9 8 7 5 4 6 7 7 7 8 10 9 7 5 5 6 6 6 5 4 3 3 3 3 3 3 3
39 37 32 27 24 23 21 20 18 17 15 14 13 12 11 9 8 8 7 6 6 8 9 9 9 9 10 9 7 6 6 6 6 6 6 5 4 3 3 3 3 3 3
37 35 30 27 26 25 23 21 21 21 19 16 14 13 11 8 6 6 7 7 8 8 9 9 9 8 7 6 6 5 6 6 6 6 6 6 5 4 3 3 3 2 3
35 33 30 27 26 25 23 22 23 23 22 19 16 14 12 9 6 5 6 8 9 9 9 9 8 7 6 5 4 3 3 4 5 6 6 6 6 5 4 3 3 3 3
36 34 30 28 26 24 23 23 23 22 21 19 16 15 13 11 7 4 4 8 10 11 11 10 9 8 7 6 5 4 3 3 4 6 6 6 6 6 5 4 4 3 3
35 33 29 27 25 23 22 23 23 22 20 18 16 15 14 11 8 4 3 7 12 13 12 10 9 8 7 6 6 7 7 5 5 6 6 6 6 6 6 6 5 4 3
33 30 27 26 25 23 22 22 22 22 21 19 16 16 14 11 7 3 3 9 13 13 11 9 8 6 5 4 5 8 8 7 6 6 6 6 6 5 5 6 6 4 3
31 28 25 23 23 23 23 21 21 22 22 20 18 17 15 12 7 2 4 9 12 10 9 6 5 4 3 3 4 6 6 5 5 5 5 5 4 4 4 5 5 4 3
32 29 25 22 21 22 22 21 21 21 20 20 18 18 16 12 7 2 4 7 9 8 6 4 3 2 1 1 2 3 3 3 4 4 5 5 4 3 3 4 4 3 3
33 30 27 23 21 22 22 21 21 21 20 18 16 15 14 10 4 2 2 4 5 5 4 3 2 1 0 0 1 1 1 1 3 4 5 6 5 4 3 3 3 3 2
32 31 29 25 23 23 23 21 21 20 18 16 12 10 9 7 3 1 1 1 1 2 2 2 1 0 0 0 0 0 0 1 2 3 4 5 4 3 3 3 2 1 1
30 30 29 26 23 23 22 20 19 18 16 13 10 8 7 6 5 3 2 1 1 1 1 1 0 0 0 0 0 0 0 0 1 2 3 3 2 2 2 1 1 0 0
28 29 27 24 23 21 19 17 16 14 12 10 9 7 6 6 5 3 2 2 2 2 2 2 1 0 0 0 0 0 0 0 0 1 1 1 1 2 2 1 0 0 0
26 26 24 22 21 19 16 13 11 9 7 5 5 5 5 3 2 1 1 2 2 2 3 3 2 1 1 1 2 1 0 0 0 0 0 0 1 1 1 0 0 0 0
21 19 18 18 18 17 14 12 10 7 5 3 2 2 1 1 0 0 0 1 1 1 2 3 3 3 3 4 4 3 1 0 0 0 0 0 0 0 0 0 0 0 0
13 12 12 14 16 15 13 11 9 9 7 5 2 0 0 0 0 0 0 1 1 1 3 3 3 3 3 4 4 3 1 0 0 0 0 0 0 0 0 0 0 0 0
11 10 11 14 16 15 11 9 9 10 9 8 4 1 1 0 0 0 0 1 2 3 3 3 3 3 3 3 3 2 1 0 0 0 0 0 0 0 0 0 0 0 0
14 11 11 14 16 14 12 10 10 10 10 9 6 3 2 1 1 1 1 2 3 3 3 3 3 3 3 3 2 1 0 1 1 1 0 0 0 0 0 0 0 0 0
14 12 11 13 15 14 13 11 10 10 10 9 6 4 3 3 2 2 2 3 3 3 3 3 3 3 3 3 1 0 0 1 2 1 0 0 0 0 0 0 0 0 0
13 12 11 12 13 13 12 10 9 9 9 8 5 3 3 3 3 3 3 3 3 3 3 3 3 3 3 2 1 0 1 2 2 1 0 0 0 0 0 0 0 0 0
12 11 11 11 12 12 11 9 8 7 7 6 4 3 3 3 3 3 3 3 3 3 3 3 3 3 3 2 1 1 2 2 2 1 0 0 0 0 0 0 0 0 0
10 9 9 10 10 10 9 8 7 6 5 4 3 3 3 3 3 3 3 3 3 3 3 3 3 3 3 3 2 2 1 1 1 0 0 0 0 0 0 0 0 0 0
10 10 10 10 10 9 8 6 5 4 4 3 3 3 3 3 3 3 3 3 3 3 3 3 3 3 3 3 3 2 1 0 0 0 0 0 0 0 0 0 0 0 0
11 11 11 11 10 9 7 5 2 2 3 3 3 3 3 3 3 3 3 3 3 3 3 3 3 3 3 3 3 1 0 0 0 0 0 0 0 0 0 0 0 0 0

GEFSGL_con_prob3kmehi_240.txt.gz
EHI
55 56 55 53 50 44 38 34 30 25 24 25 26 22 17 15 15 15 12 9 7 8 11 12 12 11 13 13 12 11 10 9 9 10 9 7 6 6 4 3 3 3 3
59 58 57 55 52 46 38 33 29 26 25 27 27 24 20 17 17 17 15 11 9 10 12 13 13 14 15 15 14 14 12 10 9 8 8 7 6 6 4 3 3 3 3
60 60 59 57 54 47 38 34 33 31 30 30 30 27 23 20 20 21 19 16 13 14 15 15 15 16 16 16 15 15 14 11 10 8 7 6 6 6 5 4 3 3 3
61 61 61 59 54 46 39 37 37 36 34 34 33 30 25 22 21 23 22 20 17 17 17 16 16 16 15 15 14 14 13 12 11 9 7 6 6 6 6 5 4 3 3
60 61 61 57 50 44 39 38 37 37 36 35 34 30 26 21 19 21 22 21 20 19 18 16 15 15 13 11 10 10 11 11 10 9 7 6 6 6 6 6 5 4 4
57 57 56 52 45 40 38 37 37 37 36 35 31 28 24 19 16 16 18 19 21 20 18 15 13 12 11 9 6 5 6 7 7 8 8 7 6 6 6 6 6 5 5
55 54 51 48 43 38 36 36 37 37 36 33 30 27 25 20 13 9 10 16 20 20 19 15 10 9 9 7 4 2 2 2 3 4 7 7 7 6 6 6 6 5 5
54 51 48 46 43 40 39 38 38 38 36 33 31 29 27 22 14 6 7 14 20 21 18 14 10 8 6 5 4 3 3 1 0 1 3 4 5 4 3 3 4 4 4
52 50 48 45 42 41 42 42 41 40 37 33 32 32 30 24 14 6 8 15 20 19 16 13 10 7 5 3 4 5 5 3 1 0 1 1 1 1 1 1 2 2 2
51 50 48 44 41 41 43 44 45 42 38 33 31 32 31 24 13 5 7 14 18 17 14 11 8 5 3 3 4 5 6 4 2 1 0 0 0 1 1 1 1 1 1
54 52 49 44 40 39 43 47 47 44 37 33 32 32 29 22 12 5 5 10 15 15 12 9 6 3 2 2 2 4 4 4 3 2 1 0 1 2 2 2 2 2 1
58 57 53 46 41 40 44 46 46 42 35 31 30 29 26 21 13 6 3 5 10 12 9 6 4 2 1 0 1 2 2 3 3 3 2 1 2 3 3 3 3 2 1
60 61 56 48 46 46 44 41 40 37 31 28 27 25 23 21 15 7 2 1 4 6 5 3 1 0 0 0 0 0 1 2 3 3 2 1 2 3 3 3 3 1 0
56 56 51 46 47 48 43 36 32 29 27 27 26 22 21 21 14 6 2 1 2 2 2 2 1 0 0 1 1 1 2 3 3 3 2 1 1 1 2 3 2 1 0
49 47 43 39 38 39 36 28 23 21 20 22 24 21 18 16 11 4 2 2 2 2 2 2 2 1 1 2 3 4 4 4 4 3 3 2 1 0 1 1 1 1 0
43 41 37 32 30 30 28 23 18 14 12 13 15 14 11 9 6 2 1 2 2 2 2 3 3 3 3 3 3 4 4 4 3 3 3 2 1 0 0 0 0 0 0
40 38 33 29 26 26 26 24 18 13 10 8 7 6 4 3 2 1 0 1 1 1 1 3 3 3 3 3 3 3 3 3 3 3 3 2 1 0 0 0 0 0 0
38 35 30 26 25 25 26 25 21 17 13 9 5 3 1 1 1 0 0 1 1 1 2 3 3 3 3 3 3 3 3 3 3 3 3 3 1 0 0 0 0 0 0
34 31 27 24 22 22 23 24 23 20 17 13 10 6 2 1 1 0 1 2 2 3 3 3 3 3 3 3 3 3 3 3 3 3 3 3 2 1 0 0 0 0 0
30 26 23 22 19 18 20 22 22 22 19 16 13 9 5 2 2 1 1 3 3 3 3 3 3 3 3 3 3 3 3 3 3 3 3 3 3 1 0 0 0 0 0
27 24 21 20 19 18 18 19 20 21 19 17 14 10 5 3 3 3 3 3 3 3 3 3 3 3 3 3 3 3 3 3 3 3 3 3 3 2 1 0 0 0 0
26 25 23 22 21 18 16 16 17 17 16 14 13 9 5 4 4 4 4 4 3 3 3 3 3 3 3 3 3 3 3 3 3 3 3 3 3 3 2 1 0 0 0
24 24 24 24 21 17 14 14 13 13 12 12 12 9 6 5 7 6 5 4 4 3 3 3 3 3 3 3 3 3 3 3 3 3 3 3 3 3 3 1 0 0 0
21 22 22 21 18 15 13 11 10 10 12 12 11 10 7 6 8 8 5 4 3 3 3 3 3 3 3 3 3 3 3 3 3 3 3 3 3 3 3 2 1 0 0
19 19 20 18 16 15 13 11 10 11 12 11 10 9 7 7 8 7 5 4 3 3 3 3 3 3 3 3 3 3 3 3 2 3 3 3 3 3 3 2 1 0 0
18 18 19 19 17 16 14 12 11 12 12 10 9 8 7 6 7 7 6 4 3 3 3 3 3 3 3 3 3 3 3 2 1 2 3 3 3 3 3 1 0 0 0